Location: Newark
(13.9670°N, 101.5170°E)
Time: 17:17:29
(UTC+00:00)

N. Korean satellite - Visible Passes

Search period start: 16 July 2019 00:00
Search period end: 26 July 2019 00:00
Orbit: 456 x 508 km, 97.2° (Epoch: 16 July)

Date Brightness Start Highest point End Pass type
(mag) Time Alt. Az. Time Alt. Az. Time Alt. Az.
16 Jul 9.9 22:07:04 10° ENE 22:08:18 11° E 22:09:31 10° ESE visible
19 Jul 9.3 22:23:29 10° NE 22:26:23 22° E 22:29:17 10° SSE visible
23 Jul 9.6 22:16:51 10° NE 22:19:21 17° E 22:21:50 10° SE visible
